CW3081 Weather Reports


Display with metric or nautical units.
time (UTC)temp
F
wind
direction
speed
MPH
gust
MPH
rain 1hr
in
rain 24hr
in
rain mn
in
humidity
%
barometer
mb
20260508193050 72 224 0.0 3.0 0.00 0.00 0.00 40 1013.0
20260508191546 72 152 1.0 3.0 0.00 0.00 0.00 41 1013.1
20260508190055 72 0 0.0 2.0 0.00 0.00 0.00 42 1013.5
20260508184600 72 141 1.0 3.0 0.00 0.00 0.00 39 1013.6
20260508183044 72 259 0.0 3.0 0.00 0.00 0.00 39 1013.6
20260508181555 72 184 1.0 2.0 0.00 0.00 0.00 39 1014.1
20260508180050 71 167 0.0 3.0 0.00 0.00 0.00 42 1014.5
20260508174547 70 181 0.0 2.0 0.00 0.00 0.00 44 1014.6
20260508173050 70 250 1.0 2.0 0.00 0.00 0.00 40 1015.1
20260508171545 69 146 1.0 2.0 0.00 0.00 0.00 41 1015.2
20260508170043 68 252 0.0 2.0 0.00 0.00 0.00 43 1015.6
20260508164555 67 154 0.0 3.0 0.00 0.00 0.00 48 1015.7
20260508163038 67 248 0.0 1.0 0.00 0.00 0.00 47 1015.9
20260508161551 66 203 0.0 2.0 0.00 0.00 0.00 47 1016.2
20260508160041 65 255 0.0 2.0 0.00 0.00 0.00 49 1016.4
20260508154550 64 0 0.0 2.0 0.00 0.00 0.00 51 1016.7
20260508153048 64 220 0.0 2.0 0.00 0.00 0.00 53 1016.9
20260508151546 63 194 0.0 2.0 0.00 0.00 0.00 60 1016.8
20260508150058 62 146 0.0 3.0 0.00 0.00 0.00 56 1016.9
20260508144603 61 148 1.0 3.0 0.00 0.00 0.00 59 1017.1
20260508143044 60 200 0.0 1.0 0.00 0.00 0.00 60 1017.3
20260508141551 59 5 0.0 1.0 0.00 0.00 0.00 67 1017.3
20260508140053 58 0 0.0 1.0 0.00 0.00 0.00 70 1017.4
20260508134553 56 354 0.0 0.0 0.00 0.00 0.00 72 1017.5
20260508133110 55 0 0.0 0.0 0.00 0.00 0.00 79 1017.5
20260508131550 54 0 0.0 0.0 0.00 0.00 0.00 87 1017.4
20260508130039 49 0 0.0 0.0 0.00 0.00 0.00 96 1017.5
20260508124549 44 0 0.0 0.0 0.00 0.00 0.00 95 1017.4
20260508123059 42 0 0.0 0.0 0.00 0.00 0.00 94 1017.2
20260508121546 41 0 0.0 0.0 0.00 0.00 0.00 94 1017.3
20260508120052 0 0.0 0.0 0.00 0.00 0.00 1017.0
20260508114549 0 0.0 0.0 0.00 0.00 0.00 1017.0
20260508113107 0 0.0 0.0 0.00 0.00 0.00 1016.7
20260508111544 0 0.0 0.0 0.00 0.00 0.00 1016.6
20260508110054 0 0.0 0.0 0.00 0.00 0.00 1016.4
20260508104541 40 0 0.0 0.0 0.00 0.00 0.00 93 1016.3
20260508103057 40 0 0.0 0.0 0.00 0.00 0.00 93 1016.1
20260508101600 40 0 0.0 0.0 0.00 0.00 0.00 93 1016.0
20260508100042 40 0 0.0 0.0 0.00 0.00 0.00 93 1015.9
20260508094545 41 0 0.0 0.0 0.00 0.00 0.00 93 1015.9
20260508093043 41 0 0.0 0.0 0.00 0.00 0.00 93 1015.7
20260508091550 41 0 0.0 0.0 0.00 0.00 0.00 92 1015.7
20260508090059 41 0 0.0 0.0 0.00 0.00 0.00 92 1015.7
20260508084545 42 0 0.0 0.0 0.00 0.00 0.00 92 1015.5
20260508083040 42 0 0.0 0.0 0.00 0.00 0.00 92 1015.7
20260508081543 42 0 0.0 0.0 0.00 0.00 0.00 92 1015.7
20260508080044 42 0 0.0 0.0 0.00 0.00 0.00 92 1015.7
20260508074545 43 0 0.0 0.0 0.00 0.00 0.00 92 1016.0
20260508073056 43 0 0.0 0.0 0.00 0.00 0.00 92 1016.1
20260508071555 43 0 0.0 0.0 0.00 0.00 0.00 92 1016.1
20260508070046 43 0 0.0 0.0 0.00 0.00 0.00 92 1016.2
20260508064543 43 0 0.0 0.0 0.00 0.00 0.00 92 1016.2
20260508063044 43 0 0.0 0.0 0.00 0.00 0.00 92 1016.3
20260508061551 44 0 0.0 1.0 0.00 0.00 0.00 91 1016.2
20260508060048 44 0 0.0 0.0 0.00 0.00 0.00 91 1016.4
20260508054545 45 0 0.0 0.0 0.00 0.00 0.00 91 1016.3
20260508053109 45 0 0.0 0.0 0.00 0.00 0.00 91 1016.5
20260508051543 45 0 0.0 0.0 0.00 0.00 0.00 91 1016.5
20260508050044 45 0 0.0 0.0 0.00 0.00 0.00 90 1016.3
20260508044538 46 0 0.0 0.0 0.00 0.00 0.00 90 1016.3
20260508043046 46 0 0.0 0.0 0.00 0.00 0.00 89 1016.4
20260508041609 47 0 0.0 0.0 0.00 0.00 0.00 89 1016.5
20260508040120 47 0 0.0 0.0 0.00 0.00 0.00 89 1016.7
20260508034547 47 0 0.0 0.0 0.00 0.00 0.00 88 1016.6
20260508033038 48 0 0.0 0.0 0.00 0.00 0.00 88 1016.7
20260508031547 48 0 0.0 0.0 0.00 0.00 0.00 87 1016.4
20260508030046 49 0 0.0 0.0 0.00 0.00 0.00 87 1016.3
20260508024550 50 0 0.0 0.0 0.00 0.00 0.00 86 1016.1
20260508023039 50 0 0.0 0.0 0.00 0.00 0.00 85 1016.2
20260508021540 51 0 0.0 0.0 0.00 0.00 0.00 83 1016.1
20260508020046 52 0 0.0 0.0 0.00 0.00 0.00 81 1015.8
20260508014547 53 0 0.0 0.0 0.00 0.00 0.00 79 1016.0
20260508013044 54 0 0.0 0.0 0.00 0.00 0.00 75 1015.8
20260508011550 55 0 0.0 0.0 0.00 0.00 0.00 71 1015.6
20260508010039 56 0 0.0 0.0 0.00 0.00 0.00 67 1015.4
20260508004555 57 0 0.0 0.0 0.00 0.00 0.00 66 1015.2
20260508003040 59 0 0.0 0.0 0.00 0.00 0.00 63 1015.1
20260508001541 59 0 0.0 0.0 0.00 0.00 0.00 62 1014.9
20260508000047 60 0 0.0 0.0 0.00 0.00 0.00 60 1014.8
20260507234551 61 0 0.0 0.0 0.00 0.00 0.00 59 1014.8
20260507233057 62 0 0.0 0.0 0.00 0.00 0.00 60 1014.7
20260507231548 62 0 0.0 1.0 0.00 0.00 0.00 53 1014.5
20260507230043 62 0 0.0 1.0 0.00 0.00 0.00 53 1014.6
20260507224554 63 27 0.0 1.0 0.00 0.00 0.00 59 1014.6
20260507223047 63 0 0.0 1.0 0.00 0.00 0.00 51 1014.6
20260507221543 63 1 0.0 1.0 0.00 0.00 0.00 54 1014.6
20260507220050 63 0 0.0 2.0 0.00 0.00 0.00 49 1014.8
20260507214545 64 350 0.0 2.0 0.00 0.00 0.00 49 1014.9
20260507213058 64 305 0.0 3.0 0.00 0.00 0.00 50 1014.6
20260507211547 63 0 0.0 1.0 0.00 0.00 0.00 53 1014.5
20260507210049 63 0 1.0 3.0 0.00 0.00 0.00 49 1014.6
20260507204542 64 258 0.0 3.0 0.00 0.00 0.00 52 1014.5
20260507203046 63 348 0.0 3.0 0.00 0.00 0.00 47 1014.6
20260507201546 64 327 1.0 2.0 0.00 0.00 0.00 49 1014.7
20260507200047 64 339 0.0 4.0 0.00 0.00 0.00 50 1014.8
20260507194615 64 0 1.0 2.0 0.00 0.00 0.00 49 1014.6